Orbital Elements at Epoch 2459200.5 (2020-Dec-17.0) TDB
Reference: JPL 35 (heliocentric ecliptic J2000)
Element | Value | Uncertainty (1-sigma) | Units |
e | .04943204136625579 | 3.7015e-08 | |
a | 3.039255371072974 | 1.8451e-08 | au |
q | 2.88901877384748 | 1.1346e-07 | au |
i | 9.43946847618197 | 4.0796e-06 | deg |
node | 228.1856800190721 | 2.6084e-05 | deg |
peri | 27.19623003167245 | 5.3429e-05 | deg |
M | 289.1288184105201 | 4.8644e-05 | deg |
tp | 2459581.492467061508 (2022-Jan-01.99246706) | 0.00026248 | TDB |
period | 1935.304097744892 5.30 | 1.7623e-05 4.825e-08 | d yr |
n | .1860172778115279 | 1.6939e-09 | deg/d |
Q | 3.189491968298468 | 1.9363e-08 | au |
|
| | Orbit Determination Parameters
Additional Information
|